Weather History for KHOT - February, 2014

Change the Weather History Date:

Sunday, February 23, 2014

  Actual Average Record
Temperature  
Mean Temperature 55 °F -  
Max Temperature 68 °F 58 °F 83 °F (1982)
Min Temperature 42 °F 36 °F 13 °F (1989)
Degree Days  
Heating Degree Days 10    
Growing Degree Days 5 (Base 50)    
Moisture  
Dew Point 39 °F    
Average Humidity 59    
Maximum Humidity 76    
Minimum Humidity 42    
Precipitation  
Precipitation 0.00 in - - ()
Sea Level Pressure  
Sea Level Pressure 30.02 in    
Wind  
Wind Speed 3 mph (NE)    
Max Wind Speed 14 mph    
Max Gust Speed 22 mph    
Visibility 10 miles    
Events      
Averages and records for this station are not official NWS values.
T = Trace of Precipitation, MM = Missing Value Source: NWS Daily Summary

Daily Weather History Graph

Daily Weather History Graph

Search for Another Location

Airport or City:

Trip Planner

Search our weather history database for the weather conditions in past years. The results will help you decide how hot, cold, wet, or windy it might be!

Date:

Astronomy

Feb. 23, 2014 Rise Set
Actual Time 6:48 AM CST 6:03 PM CST
Civil Twilight 6:23 AM CST 6:28 PM CST
Nautical Twilight 5:54 AM CST 6:57 PM CST
Astronomical Twilight 5:24 AM CST 7:27 PM CST
Moon 1:40 AM CST (2/23) 12:13 PM CST (2/23)
Length of Visible Light 12h 05m
Length of Day
11h 14m
Last Quarter, 38% of the Moon is Illuminated
Feb 23
Last Quarter
Mar 1
New
Mar 8
First Quarter
Mar 16
Full
Mar 23
Last Quarter

Hourly Weather History & Observations

Time (CST) Temp. Windchill Dew Point Humidity Pressure Visibility Wind Dir Wind Speed Gust Speed Precip Events Conditions
12:53 AM 48.9 °F - 32.0 °F 52% 29.94 in 10.0 mi Calm Calm - N/A   Clear
1:53 AM 54.0 °F - 33.1 °F 45% 29.94 in 10.0 mi Calm Calm - N/A   Clear
2:53 AM 48.0 °F - 34.0 °F 58% 29.93 in 10.0 mi Calm Calm - N/A   Clear
3:53 AM 44.1 °F - 34.0 °F 68% 29.92 in 10.0 mi Calm Calm - N/A   Clear
4:53 AM 43.0 °F 40.3 °F 34.0 °F 71% 29.93 in 10.0 mi ENE 4.6 mph - N/A   Clear
5:53 AM 43.0 °F - 34.0 °F 71% 29.94 in 10.0 mi Calm Calm - N/A   Clear
6:53 AM 43.0 °F - 34.0 °F 71% 29.96 in 10.0 mi Calm Calm - N/A   Clear
7:22 AM 42.8 °F - 35.6 °F 76% 29.97 in 10.0 mi Calm Calm - N/A   Mostly Cloudy
7:32 AM 42.8 °F - 35.6 °F 76% 29.98 in 10.0 mi Calm Calm - N/A   Mostly Cloudy
7:53 AM 44.1 °F - 36.0 °F 73% 29.98 in 10.0 mi Calm Calm - N/A   Overcast
8:53 AM 50.0 °F - 39.0 °F 66% 29.99 in 10.0 mi Calm Calm - N/A   Overcast
9:29 AM 55.4 °F - 39.2 °F 54% 29.98 in 10.0 mi Calm Calm - N/A   Overcast
9:53 AM 57.0 °F - 39.9 °F 53% 29.99 in 10.0 mi Calm Calm - N/A   Overcast
10:53 AM 61.0 °F - 46.9 °F 60% 29.99 in 10.0 mi WSW 3.5 mph - N/A   Overcast
11:33 AM 64.4 °F - 51.8 °F 64% 29.98 in 10.0 mi West 4.6 mph - N/A   Mostly Cloudy
11:53 AM 66.0 °F - 50.0 °F 56% 29.97 in 10.0 mi Calm Calm - N/A   Overcast
12:01 PM 66.2 °F - 50.0 °F 56% 29.98 in 10.0 mi North 3.5 mph - N/A   Overcast
12:32 PM 68.0 °F - 51.8 °F 56% 29.97 in 10.0 mi Variable 4.6 mph - N/A   Overcast
12:53 PM 66.9 °F - 51.1 °F 57% 29.96 in 10.0 mi ENE 6.9 mph - N/A   Overcast
1:03 PM 66.2 °F - 51.8 °F 60% 29.97 in 10.0 mi Variable 4.6 mph - N/A   Overcast
1:53 PM 62.1 °F - 39.0 °F 43% 29.99 in 10.0 mi NE 11.5 mph - N/A   Overcast
2:10 PM 60.8 °F - 37.4 °F 42% 30.00 in 10.0 mi NE 13.8 mph 21.9 mph N/A   Overcast
2:53 PM 57.0 °F - 36.0 °F 45% 30.02 in 10.0 mi ENE 12.7 mph - N/A   Overcast
3:53 PM 57.0 °F - 36.0 °F 45% 30.04 in 10.0 mi ENE 10.4 mph 19.6 mph N/A   Overcast
4:53 PM 55.0 °F - 36.0 °F 49% 30.07 in 10.0 mi ENE 13.8 mph - N/A   Overcast
5:53 PM 52.0 °F - 35.1 °F 53% 30.11 in 10.0 mi NNE 12.7 mph - N/A   Overcast
6:53 PM 52.0 °F - 35.1 °F 53% 30.13 in 10.0 mi NNE 4.6 mph - N/A   Overcast
7:53 PM 50.0 °F - 35.1 °F 57% 30.15 in 10.0 mi NNE 8.1 mph - N/A   Overcast
8:53 PM 46.9 °F - 33.1 °F 59% 30.17 in 10.0 mi NE 9.2 mph - N/A   Partly Cloudy
9:53 PM 46.0 °F 42.5 °F 33.1 °F 61% 30.18 in 10.0 mi NE 6.9 mph - N/A   Clear
10:53 PM 44.1 °F 40.1 °F 33.1 °F 65% 30.19 in 10.0 mi ENE 6.9 mph - N/A   Clear
11:53 PM 42.1 °F 37.1 °F 33.1 °F 70% 30.19 in 10.0 mi ENE 8.1 mph - N/A   Clear